When you browse on this site, cookies collect data to enhance your experience and personalize the content and advertising you see.
Visit our Privacy Policy to learn more. By continuing to use the site, you agree to this use of cookies and data.
  • In Czech Republic
  • List of Countries
  • For 7 days
  • Water Temperature
  • Weather Map
  • Weather Widgets
  • user-avatar
    Login

    Hourly Weather Kegums

    Today, 27 February, Thursday

    Time Temperature Precipitation Wind Pressure Humidity
    00:00 +1°C° 0 mm 2 mps 740 mmHg 90%
    01:00 +1°C° 0 mm 2 mps 740 mmHg 90%
    02:00 +1°C° 0 mm 1 mps 740 mmHg 91%
    03:00 +1°C° 0 mm 1 mps 740 mmHg 91%
    04:00 +1°C° 0 mm 1 mps 740 mmHg 91%
    05:00 +1°C° 0 mm 1 mps 740 mmHg 91%
    06:00 +1°C° 0 mm 1 mps 740 mmHg 92%
    07:00 +1°C° 0 mm 1 mps 740 mmHg 92%
    08:00 -1°C° 0 mm 2 mps 740 mmHg 92%
    09:00 +1°C° 0 mm 2 mps 740 mmHg 87%
    10:00 +1°C° 0 mm 3 mps 740 mmHg 81%
    11:00 +1°C° 0 mm 3 mps 741 mmHg 76%
    12:00 +1°C° 0.1 mm 3 mps 740 mmHg 78%
    13:00 +1°C° 0.1 mm 3 mps 740 mmHg 80%
    14:00 +2°C° 0 mm 2 mps 740 mmHg 89%
    15:00 +2°C° 0.3 mm 2 mps 741 mmHg 91%
    16:00 0°C° 0.3 mm 3 mps 741 mmHg 93%
    17:00 0°C° 0.3 mm 3 mps 741 mmHg 95%
    18:00 0°C° 0.5 mm 3 mps 741 mmHg 95%
    19:00 0°C° 0.5 mm 3 mps 741 mmHg 95%
    20:00 -1°C° 0.5 mm 4 mps 741 mmHg 96%
    21:00 0°C° 0.2 mm 3 mps 741 mmHg 96%
    22:00 0°C° 0.2 mm 3 mps 741 mmHg 96%
    23:00 0°C° 0.2 mm 3 mps 741 mmHg 96%

    Tomorrow, 28 February, Friday

    Time Temperature Precipitation Wind Pressure Humidity
    00:00 -1°C° 0.2 mm 3 mps 741 mmHg 96%
    01:00 -1°C° 0.2 mm 3 mps 742 mmHg 96%
    02:00 -1°C° 0.2 mm 3 mps 742 mmHg 96%
    03:00 -1°C° 0.1 mm 3 mps 742 mmHg 93%
    04:00 -2°C° 0.1 mm 3 mps 743 mmHg 91%
    05:00 -2°C° 0.1 mm 3 mps 743 mmHg 89%
    06:00 -2°C° 0 mm 3 mps 743 mmHg 87%
    07:00 -2°C° 0 mm 3 mps 744 mmHg 85%
    08:00 -2°C° 0 mm 3 mps 744 mmHg 84%
    09:00 -2°C° 0 mm 3 mps 745 mmHg 83%
    10:00 -2°C° 0 mm 3 mps 745 mmHg 81%
    11:00 -1°C° 0 mm 3 mps 746 mmHg 80%
    12:00 -1°C° 0 mm 3 mps 747 mmHg 79%
    13:00 -2°C° 0 mm 4 mps 747 mmHg 78%
    14:00 -2°C° 0 mm 4 mps 748 mmHg 77%
    15:00 -2°C° 0 mm 4 mps 748 mmHg 77%
    16:00 -2°C° 0 mm 4 mps 749 mmHg 77%
    17:00 -3°C° 0 mm 4 mps 749 mmHg 77%
    18:00 -2°C° 0 mm 3 mps 750 mmHg 79%
    19:00 -3°C° 0 mm 2 mps 750 mmHg 81%
    20:00 -2°C° 0 mm 1 mps 751 mmHg 83%
    21:00 -3°C° 0 mm 2 mps 751 mmHg 84%
    22:00 -3°C° 0 mm 2 mps 751 mmHg 84%
    23:00 -3°C° 0 mm 2 mps 751 mmHg 85%

    Day after tomorrow, 29 February, Saturday

    Time Temperature Precipitation Wind Pressure Humidity
    00:00 -3°C° 0 mm 2 mps 751 mmHg 87%
    01:00 -3°C° 0 mm 2 mps 751 mmHg 90%
    02:00 -3°C° 0 mm 2 mps 751 mmHg 92%
    03:00 -3°C° 0 mm 2 mps 751 mmHg 93%
    04:00 -3°C° 0 mm 2 mps 751 mmHg 95%
    05:00 -1°C° 0 mm 1 mps 751 mmHg 96%
    06:00 -1°C° 0 mm 1 mps 751 mmHg 96%
    07:00 -1°C° 0 mm 1 mps 751 mmHg 95%
    08:00 -1°C° 0 mm 1 mps 751 mmHg 95%
    09:00 -2°C° 0 mm 2 mps 751 mmHg 88%
    10:00 +1°C° 0 mm 2 mps 751 mmHg 81%
    11:00 +2°C° 0 mm 2 mps 752 mmHg 74%
    12:00 +2°C° 0 mm 2 mps 752 mmHg 72%
    13:00 +2°C° 0 mm 3 mps 752 mmHg 70%
    14:00 +2°C° 0 mm 3 mps 752 mmHg 68%
    15:00 +3°C° 0 mm 2 mps 751 mmHg 72%
    16:00 +3°C° 0 mm 2 mps 751 mmHg 76%
    17:00 +2°C° 0 mm 2 mps 751 mmHg 79%
    18:00 +2°C° 0 mm 2 mps 751 mmHg 83%
    19:00 +1°C° 0 mm 2 mps 751 mmHg 88%
    20:00 0°C° 0 mm 3 mps 751 mmHg 92%
    21:00 0°C° 0 mm 3 mps 751 mmHg 90%
    22:00 0°C° 0 mm 3 mps 750 mmHg 89%
    23:00 0°C° 0 mm 3 mps 750 mmHg 87%

    1 March, Sunday

    Time Temperature Precipitation Wind Pressure Humidity
    00:00 -1°C° 0 mm 4 mps 749 mmHg 85%
    01:00 -1°C° 0 mm 4 mps 749 mmHg 83%
    02:00 -1°C° 0 mm 4 mps 748 mmHg 80%
    03:00 -1°C° 0 mm 4 mps 748 mmHg 83%
    04:00 -1°C° 0 mm 5 mps 747 mmHg 86%
    05:00 -1°C° 0 mm 5 mps 746 mmHg 89%
    06:00 -1°C° 0.2 mm 5 mps 746 mmHg 91%
    07:00 0°C° 0.2 mm 5 mps 745 mmHg 92%
    08:00 0°C° 0.2 mm 5 mps 745 mmHg 93%
    09:00 +1°C° 0.4 mm 5 mps 745 mmHg 93%
    10:00 +1°C° 0.4 mm 6 mps 744 mmHg 93%
    11:00 +2°C° 0.4 mm 6 mps 744 mmHg 92%
    12:00 +2°C° 0.1 mm 5 mps 745 mmHg 88%
    13:00 +4°C° 0.1 mm 4 mps 745 mmHg 84%
    14:00 +4°C° 0.1 mm 4 mps 746 mmHg 80%
    15:00 +4°C° 0 mm 3 mps 746 mmHg 79%
    16:00 +4°C° 0 mm 3 mps 746 mmHg 79%
    17:00 +4°C° 0 mm 3 mps 747 mmHg 78%
    18:00 +3°C° 0 mm 3 mps 747 mmHg 81%
    19:00 +2°C° 0 mm 3 mps 747 mmHg 83%
    20:00 +1°C° 0 mm 3 mps 747 mmHg 86%
    21:00 +1°C° 0 mm 3 mps 747 mmHg 87%
    22:00 +1°C° 0 mm 3 mps 747 mmHg 88%
    23:00 +1°C° 0 mm 3 mps 747 mmHg 88%

    2 March, Monday

    Time Temperature Precipitation Wind Pressure Humidity
    00:00 +1°C° 0 mm 3 mps 747 mmHg 89%
    01:00 +1°C° 0 mm 3 mps 747 mmHg 90%
    02:00 +1°C° 0 mm 3 mps 747 mmHg 90%
    03:00 +1°C° 0 mm 3 mps 747 mmHg 91%
    04:00 0°C° 0 mm 3 mps 747 mmHg 92%
    05:00 +1°C° 0 mm 2 mps 747 mmHg 94%
    06:00 +1°C° 0 mm 2 mps 748 mmHg 94%
    07:00 +1°C° 0 mm 2 mps 748 mmHg 95%
    08:00 +1°C° 0 mm 2 mps 748 mmHg 96%
    09:00 +2°C° 0 mm 2 mps 749 mmHg 91%
    10:00 +3°C° 0 mm 2 mps 749 mmHg 87%
    11:00 +4°C° 0 mm 3 mps 749 mmHg 83%
    12:00 +4°C° 0 mm 3 mps 749 mmHg 80%
    13:00 +5°C° 0 mm 3 mps 749 mmHg 77%
    14:00 +7°C° 0 mm 3 mps 749 mmHg 74%
    15:00 +5°C° 0 mm 3 mps 748 mmHg 77%
    16:00 +6°C° 0 mm 2 mps 748 mmHg 81%
    17:00 +5°C° 0 mm 2 mps 748 mmHg 84%
    18:00 +4°C° 0 mm 3 mps 748 mmHg 86%
    19:00 +3°C° 0 mm 3 mps 748 mmHg 88%
    20:00 +3°C° 0 mm 4 mps 748 mmHg 90%
    21:00 +3°C° 0 mm 4 mps 747 mmHg 89%
    22:00 +3°C° 0 mm 4 mps 747 mmHg 88%
    23:00 +3°C° 0 mm 4 mps 747 mmHg 86%

    3 March, Tuesday

    Time Temperature Precipitation Wind Pressure Humidity
    00:00 +3°C° 0.1 mm 4 mps 746 mmHg 88%
    01:00 +3°C° 0.1 mm 4 mps 746 mmHg 90%
    02:00 +3°C° 0.1 mm 4 mps 745 mmHg 91%
    03:00 +3°C° 1.1 mm 4 mps 745 mmHg 92%
    04:00 +3°C° 1.1 mm 4 mps 744 mmHg 93%
    05:00 +3°C° 1.1 mm 4 mps 744 mmHg 94%
    06:00 +4°C° 0.5 mm 3 mps 744 mmHg 95%
    07:00 +4°C° 0.5 mm 3 mps 744 mmHg 95%
    08:00 +4°C° 0.5 mm 3 mps 744 mmHg 96%
    09:00 +4°C° 0.1 mm 3 mps 745 mmHg 91%
    10:00 +4°C° 0.1 mm 4 mps 746 mmHg 86%
    11:00 +5°C° 0.1 mm 5 mps 747 mmHg 82%
    12:00 +5°C° 0 mm 4 mps 748 mmHg 79%
    13:00 +5°C° 0 mm 4 mps 749 mmHg 76%
    14:00 +5°C° 0 mm 4 mps 749 mmHg 74%
    15:00 +5°C° 0 mm 3 mps 750 mmHg 74%
    16:00 +5°C° 0 mm 3 mps 751 mmHg 75%
    17:00 +6°C° 0 mm 2 mps 751 mmHg 75%
    18:00 +5°C° 0 mm 2 mps 752 mmHg 79%
    19:00 +4°C° 0 mm 2 mps 753 mmHg 83%
    20:00 +3°C° 0 mm 2 mps 753 mmHg 86%
    21:00 +3°C° 0 mm 2 mps 753 mmHg 88%
    22:00 +4°C° 0 mm 1 mps 754 mmHg 89%
    23:00 +4°C° 0 mm 1 mps 754 mmHg 91%
    Show more